This is the latest recevied weather packets stored in our database for station/object DF9PM-13. If no packets are shown the sender has not sent any weather packets the latest 10 day(s).
| Time | Temp. | Humidity | Pressure | Rain* | Wind** | Luminosity | Snow |
|---|---|---|---|---|---|---|---|
| 1777768211 | 15° C | 89% | 1015 hPa | - | - | - | - |
| 1777767911 | 15.56° C | 89% | 1014.9 hPa | - | - | - | - |
| 1777767611 | 15.56° C | 88% | 1014.9 hPa | - | - | - | - |
| 1777767311 | 15.56° C | 88% | 1015 hPa | - | - | - | - |
| 1777767011 | 15.56° C | 86% | 1015 hPa | - | - | - | - |
| 1777766711 | 15.56° C | 86% | 1015 hPa | - | - | - | - |
| 1777766411 | 15.56° C | 84% | 1014.9 hPa | - | - | - | - |
| 1777766111 | 16.11° C | 84% | 1015 hPa | - | - | - | - |
| 1777765811 | 15.56° C | 85% | 1015.1 hPa | - | - | - | - |
| 1777765511 | 16.11° C | 84% | 1015 hPa | - | - | - | - |
| 1777765211 | 16.11° C | 82% | 1015 hPa | - | - | - | - |
| 1777764911 | 16.11° C | 83% | 1015.1 hPa | - | - | - | - |
| 1777764610 | 16.11° C | 85% | 1015.1 hPa | - | - | - | - |
| 1777764310 | 16.67° C | 82% | 1015.1 hPa | - | - | - | - |
| 1777764010 | 16.67° C | 82% | 1015.1 hPa | - | - | - | - |
| 1777763710 | 16.67° C | 82% | 1015.1 hPa | - | - | - | - |
| 1777763410 | 16.67° C | 81% | 1015.1 hPa | - | - | - | - |
| 1777763110 | 16.67° C | 81% | 1015.1 hPa | - | - | - | - |
| 1777762810 | 16.67° C | 79% | 1015.1 hPa | - | - | - | - |
| 1777762510 | 16.67° C | 79% | 1015.1 hPa | - | - | - | - |
| 1777762210 | 17.22° C | 77% | 1015.2 hPa | - | - | - | - |
| 1777761910 | 17.22° C | 76% | 1015.2 hPa | - | - | - | - |
| 1777761610 | 17.22° C | 75% | 1015.2 hPa | - | - | - | - |
| 1777761310 | 17.22° C | 74% | 1015.3 hPa | - | - | - | - |
| 1777761010 | 17.22° C | 76% | 1015.2 hPa | - | - | - | - |
* Rain since midnight (hover to see other rain measurements)
** Current wind speed in m/s (hover to see current wind gust speed)